Main page
METAR-TAF:

METAR-TAF

Airports :

Barbacena, Minas Gerais, Brazil

latitude: 21-15S, longitude: 043-46W, elevation: 1171 m

Current weather observation

The report was made 29 minutes ago, at 11:00 UTC
Wind 7 kt from the Northwest
Temperature 22°C
Humidity 78%
Pressure 1017 hPa
Visibility 10 km or more
Broken clouds at a height of 1000 ft

METAR: SBBQ 061100Z 32007KT 9999 BKN010 22/18 Q1017

Time: 08:29 (11:29 UTC)


TAF: missing

Weather observations and forecasts of more than 4000 airports (METAR and TAF reports).

The available stations are represented by yellow and red dots on the map.

Hover mouse over dot to see the name of the station.

Then click to see weather observations and forecasts.

To change the map : click on the green buttons with a black cross to zoom in, on the green button with a dash to zoom out, or on the green arrows for adjacent maps.


METAR-TAF: